This is the latest recevied weather packets stored in our database for station/object K5SVV. If no packets are shown the sender has not sent any weather packets the latest 10 day(s).
| Time | Temp. | Humidity | Pressure | Rain* | Wind** | Luminosity | Snow |
|---|---|---|---|---|---|---|---|
| 1788192718 | 32.78° C | 53% | 1017 hPa | 0 mm | - | 734 W/m² | - |
| 1788192417 | 32.78° C | 54% | 1017.1 hPa | 0 mm | - | 718 W/m² | - |
| 1788192112 | 32.22° C | 54% | 1017.1 hPa | 0 mm | - | 730 W/m² | - |
| 1788191812 | 32.78° C | 55% | 1017.2 hPa | 0 mm | - | 730 W/m² | - |
| 1788191508 | 31.67° C | 56% | 1017.2 hPa | 0 mm | - | 676 W/m² | - |
| 1788191203 | 31.67° C | 58% | 1017.2 hPa | 0 mm | - | 674 W/m² | - |
| 1788190898 | 31.67° C | 59% | 1017.2 hPa | 0 mm | - | 668 W/m² | - |
| 1788190597 | 31.11° C | 59% | 1017.1 hPa | 0 mm | - | 628 W/m² | - |
| 1788190299 | 31.11° C | 59% | 1017.1 hPa | 0 mm | - | 637 W/m² | - |
| 1788189989 | 31.11° C | 59% | 1017.1 hPa | 0 mm | - | 572 W/m² | - |
| 1788189685 | 30.56° C | 62% | 1016.8 hPa | 0 mm | - | 549 W/m² | - |
| 1788189384 | 30.56° C | 64% | 1016.9 hPa | 0 mm | - | 537 W/m² | - |
| 1788189079 | 30° C | 65% | 1016.9 hPa | 0 mm | - | 519 W/m² | - |
| 1788188769 | 30° C | 65% | 1017 hPa | 0 mm | - | 514 W/m² | - |
| 1788188464 | 30° C | 65% | 1016.9 hPa | 0 mm | - | 497 W/m² | - |
| 1788188158 | 30° C | 67% | 1017 hPa | 0 mm | - | 428 W/m² | - |
| 1788187861 | 29.44° C | 68% | 1016.8 hPa | 0 mm | - | 435 W/m² | - |
| 1788187550 | 28.89° C | 69% | 1016.8 hPa | 0 mm | - | 413 W/m² | - |
| 1788187245 | 28.89° C | 70% | 1016.7 hPa | 0 mm | - | 418 W/m² | - |
| 1788186940 | 28.89° C | 71% | 1016.9 hPa | 0 mm | - | 377 W/m² | - |
| 1788186635 | 28.89° C | 71% | 1016.9 hPa | 0 mm | - | 364 W/m² | - |
| 1788186332 | 28.33° C | 71% | 1016.7 hPa | 0 mm | - | 366 W/m² | - |
| 1788186027 | 28.33° C | 72% | 1016.5 hPa | 0 mm | - | 337 W/m² | - |
| 1788185726 | 28.33° C | 73% | 1016.8 hPa | 0 mm | - | 318 W/m² | - |
| 1788185421 | 27.78° C | 74% | 1016.7 hPa | 0 mm | - | 294 W/m² | - |
* Rain latest hour (hover to see other rain measurements)
** Current wind speed in m/s (hover to see current wind gust speed)